Location: Acts Church of Fort Worth
(32.6786°N, 97.2668°W)
Time: 08:26:01
(UTC+00:00)

Cosmos 2228 Rocket - Pass Details

Date: 18 January 2026
Orbit: 611 x 647 km, 82.5° (Epoch: 9 February)

Event Time Altitude Azimuth Distance (km) Brightness Sun altitude
Rises 01:24:40 0° 181° (S) 2,932 6.7 -20.2°
Reaches altitude 10° 01:26:55 10° 179° (S) 2,022 5.8 -20.6°
Maximum altitude 01:31:23 74° 95° (E) 662 2.9 -21.5°
Enters shadow 01:32:46 44° 21° (NNE) 885 3.6 -21.8°
